Regional Weather Roundup
Issued by NWS Wakefield, VA

Home | Current Version | Previous Version | Text Only | Print | Product List | Glossary Off
Versions: 1 2 3 4 5 6 7 8 9 10 11 12 13 14 15 16 17 18 19 20 21 22 23 24 25 26 27 28 29 30 31 32 33 34 35 36 37 38 39 40 41 42 43 44 45 46 47 48 49 50

000
ASUS41 KAKQ 021610
RWRAKQ

REGIONAL WEATHER ROUNDUP
NATIONAL WEATHER SERVICE WAKEFIELD VA
1100 AM EST MON MAR 02 2015

Note: "fair" indicates few or no clouds below 12,000 feet with no
significant weather and/or obstructions to visibility. * = Denotes
station may not report precipitation (e.g., rain,snow,etc.),
thunder or fog.

VAZ042-051-052>054-056-021700-
NORTHERN VIRGINIA

CITY           SKY/WX    TMP DP  RH WIND       PRES   REMARKS
WASH NATIONAL  MOSUNNY   43  30  60 N14       30.28R
DULLES         MOSUNNY   40  21  46 NW30G40   30.26R
FORT BELVOIR   SUNNY     43  27  52 NW24G31   30.26S
QUANTICO       MOSUNNY   45  27  49 N22G29    30.29R
FREDERICKSBRG* MOSUNNY   47  33  58 N17G25    30.25S
STAFFORD*      SUNNY     45  30  55 N15G22    30.30S
WARRENTON      MOSUNNY   46  34  61 N13       30.26S
CULPEPER*      SUNNY     46  25  42 NW10G22   30.25S
MANASSAS*      SUNNY     43  27  52 NW20G33   30.28R
LEESBURG*      SUNNY     41  28  60 NW25G35   30.26S
WINCHESTER     SUNNY     41  14  33 W22G30    30.27S
FRONT ROYAL*   FAIR      41  21  45 NW17G26   30.25S
LURAY*         FAIR      45  27  49 NW15G23   30.26S
$$

VAZ048-049-060>072-079>083-021700-
CENTRAL AND SOUTH CENTRAL VIRGINIA

CITY           SKY/WX    TMP DP  RH WIND       PRES   REMARKS
RICHMOND       PTSUNNY   44  37  76 N10       30.25F
CHESTERFIELD*  PTSUNNY   43  28  56 N6        30.27R
PETERSBURG*    MOSUNNY   50  42  75 NE15      30.24R
HANOVER        MOSUNNY   43  36  76 VRB7      30.27S
TAPPAHANNOCK*  PTSUNNY   41  31  69 NW7       30.26S
QUINTON*       FAIR      40  36  83 N7        30.26S
CHARLOTTSVILLE SUNNY     48  22  35 NW9G20    30.23R
GORDONSVILLE*  FAIR      47  24  41 NW9       30.24R
ORANGE*        MOSUNNY   45  37  76 CALM      30.26S
LOUISA*        PTSUNNY   43  37  81 E6        30.23S
BUMPASS*       FAIR      42  35  78 N8        30.25S
FARMVILLE*     PTSUNNY   59  41  51 NW6       30.21R
CREWE*         FAIR      54  41  60 NW12      30.22R
FORT PICKETT*  PTSUNNY   51  44  75 W7        30.22R
CHASE CITY*    FAIR      49  46  88 NW5       30.24R
CLARKSVILLE*   FAIR      45  41  87 CALM      30.24R
SOUTH HILL*    SUNNY     46  40  81 W6        30.29S
LAWRENCEVILLE* FAIR      47  42  82 CALM      30.22R
EMPORIA*       PTSUNNY   41  37  87 W6        30.25R
$$

VAZ088>098-021700-
SOUTHEAST VIRGINIA

CITY           SKY/WX    TMP DP  RH WIND       PRES   REMARKS
NORFOLK        CLOUDY    36  34  92 NW6       30.26R FOG
VIRGINIA BEACH CLOUDY    39  37  92 NW12      30.25R FOG
NORFOLK NAVAL  CLOUDY    40  34  79 NW6       30.28R FOG
WEST POINT*    MOSUNNY   45  35  69 N8        30.28R
SALUDA*        FAIR      39  34  80 N9        30.26R
NEWPORT NEWS   PTSUNNY   44  35  70 N9        30.26R
LANGLEY AFB    MOSUNNY   39  36  87 VRB2      30.26R FOG
FORT EUSTIS    CLOUDY    39 N/A N/A N8        30.25R FOG
WILLIAMSBURG*  MOSUNNY   45  43  93 N6        30.27R
HR EXEC AP*    CLOUDY    39  34  81 N9        30.29R
FRANKLIN*      PTSUNNY   44  39  83 NW7       30.25R
WAKEFIELD      CLOUDY    41  37  86 N9        30.26R
$$

VAZ020-022-025-037-045-021700-
WEST CENTRAL AND SOUTHWEST VIRGINIA

CITY           SKY/WX    TMP DP  RH WIND       PRES   REMARKS
STAUNTON*      SUNNY     44  19  37 NW18G24   30.26S
WAYNESBORO*    FAIR      44  22  42 N10G16    30.23F
HOT SPRINGS VA SUNNY     31  19  61 NW21G33   30.15S WCI  19
LYNCHBURG      SUNNY     48  29  47 W10       30.25R
DANVILLE       SUNNY     55  37  50 NW20G31   30.24R
SOUTH BOSTON*  FAIR      51  43  74 CALM      30.25R
MARTINSVILLE   MOSUNNY   53  35  50 NW21G28   30.28R
ROANOKE        MOSUNNY   43  25  49 W16G22    30.29R
BLACKSBURG     SUNNY     36  26  65 W13G22    30.30R
DUBLIN*        CLOUDY    39  31  71 NW9G22    30.31S
MARION*        CLOUDY    37  30  78 W16G26    30.34R
HILLSVILLE*    MOSUNNY   40  32  73 NW22G31   30.25R
RICHLANDS*     CLOUDY    31  28  91 NW9       30.37S
WISE*          CLOUDY    32  30  93 N12       30.39S WCI  23
ABINGDON*      MOSUNNY   39  33  78 N12       30.37S
$$

MDZ021>025-VAZ099-100-021700-
SOUTHERN MARYLAND AND THE DELMARVA PENINSULA

CITY           SKY/WX    TMP DP  RH WIND       PRES   REMARKS
PATUXENT RIVER PTSUNNY   40  32  73 N16       30.25R
BAY BRIDGE APT FLURRIES  37  28  70 NW17G25   30.26S
LEONARDTOWN    PTSUNNY   37  34  87 NW10G16   30.27R
DOVER          SUNNY     39  37  92 NW20G25   30.22S
GEORGETOWN     PTSUNNY   40  33  76 NW8       30.23R
EASTON         MOSUNNY   43  34  70 SW17G29   30.29R
CAMBRIDGE      MOSUNNY   37  36  93 NW13G18   30.25R
SALISBURY      PTSUNNY   41  33  73 NW17      30.24R
OCEAN CITY     PTSUNNY   37  33  85 NW12G18   30.23R
WALLOPS ISLAND CLOUDY    36  34  92 N9        30.24R
ACCOMACK*      CLOUDY    36  32  87 NW9       30.25R
$$

NCZ012>017-030>032-021700-
NORTH CENTRAL AND EASTERN NORTH CAROLINA

CITY           SKY/WX    TMP DP  RH WIND       PRES   REMARKS
ROANOKE RAPIDS CLOUDY    45  41  87 SW7       30.25R
RALEIGH        MOSUNNY   47  41  80 CALM      30.25S
ELIZABETH CITY CLOUDY    47  44  90 W9        30.23R
AHOSKIE*       PTSUNNY   43  41  93 CALM      30.24S
EDENTON*       CLOUDY    45  44  97 W8        30.24R
CURRITUCK*     CLOUDY    45  42  89 N7        30.24R
KILL DEVIL HLS CLOUDY    42  42 100 W9        30.20S FOG
MANTEO         CLOUDY    46  45  93 W7        30.22R
CAPE HATTERAS  CLOUDY    47  47 100 W9G17     30.24R
TARBORO*       CLOUDY    48  44  86 NW7       30.26S
GOLDSBORO      CLOUDY    48  48 100 W5        30.24R
WASHINGTON     CLOUDY    48  45  90 W7        30.25R
GREENVILLE     CLOUDY    48  45  87 W6        30.26R
NEW BERN       CLOUDY    51  47  86 W8        30.26R
WILMINGTON     CLOUDY    51  49  92 W9        30.26R
$$

VAZ048-021700-
ELSEWHERE

CITY           SKY/WX    TMP DP  RH WIND       PRES   REMARKS
HARRISBURG PA  NOT AVBL
BALTIMORE      MOSUNNY   39  24  55 NW13G26   30.25R
ANNAPOLIS      MOSUNNY   40  24  53 NW14G24   30.26R
ANDREWS AFB    MOSUNNY   41  29  62 NW23G35   30.25S
PHILADELPHIA   PTSUNNY   38  25  59 NW18G29   30.22R
HENDERSON NC   SUNNY     52  38  60 CALM      30.24S
GREENSBORO     MOSUNNY   55  41  59 NW15G21   30.23F
ROCKY MOUNT    SUNNY     50  46  86 NW6       30.25S
$$

VAZ100-021700-
MARINE

STATION/POSITION TIME  TEMP    WIND        PRES    WAVE   SWELL
                       AIR SEA DIR/SP/G            HT/PER HT/PER
                 (UTC) (F)     (DEG/KT/KT) (MB)    (FT/S) (FT/S)
BRANDYWINE LGT   1600   34 30              1023.1S
CAPE MAY NJ      1600   34 33              1022.8S
LEWES DE         1600   34 30  300/  9/ 10 1023.3F
15NM E FENWICK I 1600   34 35              1023.0R   3/ 8
OCEAN-CITY-INLET 1600   36 32  350/  8/ 11 1023.1R
WACHAPREAGUE VA  1600   39 33  330/  4/ 12 1024.2R
THOMAS POINT MD  1600   39 32  330/ 16/ 17 1025.4F
COVE POINT MD    1600   37     360/ 29/ 33 1024.1R
SOLOMONS ISLAND  1600      32                N/A
BISHOPS HEAD MD  1600   38 31  340/ 18/ 26 1023.7R
CAMBRIDGE MD     1600   39 32  310/ 12/ 17 1024.4R
LEWISETTA VA     1600   37 32  330/  6/ 10 1024.3S
RAPPAHANNOCK LGT 1600          310/  7/  7 1025.1R
STINGRAY PT      1600   37 32   10/ 10/ 12   N/A
YORK RVR RNG VA  1600   36     340/ 10/ 11 1023.9R
YORKTOWN VA      1600   36 33  310/  9/ 10 1024.3R
DOMINION TERM VA 1600   38     340/  3/  9 1024.9R
KIPTOPEKE VA     1600      37  360/ 12/ 16   N/A
CHES BAY BRIDGE  1600   35 33  310/  6/  9 1024.0R
CAPE HENRY VA    1600   34     300/  7/  9 1023.0R
CHESAPEAKE LGHT  1500   34     340/ 16/ 17 1024.0R
WILLOUBY STN VA  1600   36     340/  7/  8 1025.0R
S CRANEY ISL VA  1600          360/ 10/ 15 1024.8R
CAPE HENRY BUOY  1600      35                N/A     2/ 7
1ST LANDING BUOY 1600   35 33  330/  6/  6 1024.3R   1/ 3
OFFSHORE WE BUOY 1600      36                N/A     3/ 8   2/ 8
64NM E OF VA BCH 1600   40 49  320/ 17/ 21 1022.8R   5/ 7   3/ 7
DUCK PIER NC     1600   41 34  260/ 11/ 14 1022.3R
44100 DUCK FRF   1600      36                N/A     3/ 8
44056 DUCK FRF   1600      34                N/A     2/ 6
OREGON INLET NC  1600   44 41  270/  8/ 11 1022.9F
HATTERAS NC      1600   46 42  270/  8/ 12 1023.7R
CAPE LOOKOUT NC  1500   47     270/ 12/ 15 1023.7R
$$



USA.gov is the U.S. government's official web portal to all federal, state and local government web resources and services.